Weather History for Benson, MN

Change the Weather History Date:

Sunday, August 10, 2014

  Actual Average Record
Temperature  
Mean Temperature 71 °F -  
Max Temperature 78 °F 80 °F 93 °F (1988)
Min Temperature 64 °F 56 °F 32 °F (2001)
Cooling Degree Days 6    
Growing Degree Days 21 (Base 50)    
Moisture  
Dew Point 65 °F    
Average Humidity 88    
Maximum Humidity 100    
Minimum Humidity 65    
Precipitation  
Precipitation 1.06 in - - ()
Sea Level Pressure  
Sea Level Pressure 30.02 in    
Wind  
Wind Speed 8 mph (NW)    
Max Wind Speed 16 mph    
Max Gust Speed 29 mph    
Visibility 7 miles    
Events Rain    
Averages and records for this station are not official NWS values.
T = Trace of Precipitation, MM = Missing Value Source: NWS Daily Summary

Daily Weather History Graph

Daily Weather History Graph

Search for Another Location

Airport:

Trip Planner

Search our weather history database for the weather conditions in past years. The results will help you decide how hot, cold, wet, or windy it might be!

Date:

Astronomy

Aug. 10, 2014 Rise Set
Actual Time 6:17 AM CDT 8:37 PM CDT
Civil Twilight 5:44 AM CDT 9:10 PM CDT
Nautical Twilight 5:03 AM CDT 9:50 PM CDT
Astronomical Twilight 4:17 AM CDT 10:36 PM CDT
Moon 8:20 PM CDT (8/10) 6:13 AM CDT (8/10)
Length of Visible Light 15h 25m
Length of Day
14h 19m
Full, 100% of the Moon is Illuminated
Aug 10
Full
Aug 10
Full
Aug 17
Last Quarter
Aug 25
New
Sep 2
First Quarter

Hourly Weather History & Observations

Time (CDT) Temp. Dew Point Humidity Pressure Visibility Wind Dir Wind Speed Gust Speed Precip Events Conditions
12:14 AM 66.2 °F 64.4 °F 94% 30.02 in 10.0 mi SE 8.1 mph - N/A   Light Drizzle
12:33 AM 66.2 °F 64.4 °F 94% 30.03 in 7.0 mi South 8.1 mph - 0.01 in Rain Rain
12:54 AM 66.2 °F 64.4 °F 94% 30.02 in 7.0 mi SSE 9.2 mph - 0.04 in Rain Rain
1:14 AM 66.2 °F 64.4 °F 94% 30.02 in 4.0 mi South 9.2 mph - 0.13 in Rain Heavy Rain
1:33 AM 66.2 °F 64.4 °F 94% 30.01 in 7.0 mi SE 8.1 mph - 0.46 in Rain Light Rain
1:54 AM 66.2 °F 64.4 °F 94% 30.01 in 5.0 mi SSE 12.7 mph 18.4 mph 0.46 in   Light Drizzle
2:14 AM 66.2 °F 64.4 °F 94% 30.01 in 7.0 mi South 11.5 mph 17.3 mph 0.01 in   Overcast
2:34 AM 66.2 °F 64.4 °F 94% 30.02 in 5.0 mi South 11.5 mph - 0.01 in Rain Light Rain
2:53 AM 66.2 °F 64.4 °F 94% 30.01 in 7.0 mi South 6.9 mph - 0.01 in   Light Drizzle
3:14 AM 66.2 °F 64.4 °F 94% 30.01 in 5.0 mi South 10.4 mph - N/A Rain Rain
3:34 AM 66.2 °F 64.4 °F 94% 30.02 in 5.0 mi South 5.8 mph - 0.01 in Rain Rain
4:14 AM 66.2 °F 64.4 °F 94% 30.01 in 5.0 mi South 6.9 mph - 0.02 in Rain Rain
4:34 AM 66.2 °F 64.4 °F 94% 30.01 in 7.0 mi South 8.1 mph - 0.03 in   Overcast
4:53 AM 66.2 °F 64.4 °F 94% 30.01 in 5.0 mi SSW 10.4 mph - 0.05 in   Overcast
5:14 AM 66.2 °F 64.4 °F 94% 30.01 in 7.0 mi SSW 9.2 mph - N/A   Overcast
5:34 AM 66.2 °F 64.4 °F 94% 30.01 in 5.0 mi SSW 8.1 mph - N/A   Overcast
5:53 AM 66.2 °F 64.4 °F 94% 30.01 in 5.0 mi SSW 6.9 mph - N/A   Overcast
6:14 AM 66.2 °F 64.4 °F 94% 30.01 in 5.0 mi SW 5.8 mph - 0.02 in Rain Light Rain
6:34 AM 66.2 °F 64.4 °F 94% 30.02 in 7.0 mi South 6.9 mph - 0.09 in Rain Light Rain
7:14 AM 66.2 °F 64.4 °F 94% 30.02 in 2.0 mi SSW 8.1 mph - 0.03 in Rain Light Rain
7:33 AM 66.2 °F 66.2 °F 100% 30.02 in 2.5 mi SSW 8.1 mph - 0.07 in Rain Light Rain
7:54 AM 66.2 °F 66.2 °F 100% 30.02 in 3.0 mi SSW 6.9 mph - 0.08 in Rain Rain
8:14 AM 66.2 °F 66.2 °F 100% 30.02 in 3.0 mi SW 5.8 mph - N/A   Light Drizzle
8:33 AM 66.2 °F 66.2 °F 100% 30.02 in 3.0 mi SW 4.6 mph - N/A   Overcast
8:54 AM 68.0 °F 66.2 °F 94% 30.02 in 4.0 mi WSW 4.6 mph - N/A   Overcast
9:14 AM 68.0 °F 66.2 °F 94% 30.02 in 4.0 mi SW 3.5 mph - N/A   Mostly Cloudy
9:33 AM 69.8 °F 66.2 °F 88% 30.02 in 7.0 mi SW 4.6 mph - N/A   Overcast
9:54 AM 71.6 °F 66.2 °F 83% 30.02 in 10.0 mi WSW 5.8 mph - N/A   Mostly Cloudy
10:14 AM 69.8 °F 66.2 °F 88% 30.02 in 10.0 mi WSW 5.8 mph - N/A   Overcast
10:33 AM 69.8 °F 66.2 °F 88% 30.03 in 7.0 mi NW 9.2 mph - N/A   Overcast
10:54 AM 68.0 °F 66.2 °F 94% 30.03 in 5.0 mi WNW 6.9 mph - N/A   Overcast
11:14 AM 69.8 °F 66.2 °F 88% 30.03 in 5.0 mi WNW 8.1 mph - N/A   Overcast
11:33 AM 68.0 °F 66.2 °F 94% 30.04 in 1.5 mi WNW 4.6 mph - N/A   Light Drizzle
11:54 AM 68.0 °F 66.2 °F 94% 30.04 in 1.5 mi NW 5.8 mph - N/A   Light Drizzle
12:14 PM 69.8 °F 66.2 °F 88% 30.04 in 1.8 mi WNW 3.5 mph - 0.01 in   Light Drizzle
12:33 PM 69.8 °F 66.2 °F 88% 30.04 in 1.8 mi Calm Calm - 0.01 in   Light Drizzle
12:54 PM 69.8 °F 66.2 °F 88% 30.03 in 7.0 mi Calm Calm - 0.01 in   Overcast
1:14 PM 69.8 °F 66.2 °F 88% 30.03 in 2.5 mi NW 4.6 mph - N/A Rain Rain
1:33 PM 71.6 °F 66.2 °F 83% 30.03 in 7.0 mi NW 5.8 mph - N/A   Overcast
1:54 PM 73.4 °F 66.2 °F 78% 30.03 in 10.0 mi NNW 3.5 mph - N/A   Overcast
2:14 PM 73.4 °F 66.2 °F 78% 30.02 in 10.0 mi North 4.6 mph - N/A   Overcast
2:33 PM 73.4 °F 66.2 °F 78% 30.01 in 10.0 mi North 6.9 mph - N/A   Overcast
2:54 PM 73.4 °F 66.2 °F 78% 30.01 in 10.0 mi North 5.8 mph - N/A   Overcast
3:14 PM 73.4 °F 68.0 °F 83% 30.01 in 10.0 mi North 5.8 mph - N/A   Mostly Cloudy
3:33 PM 77.0 °F 69.8 °F 78% 30.00 in 10.0 mi North 10.4 mph - N/A   Overcast
3:54 PM 78.8 °F 68.0 °F 69% 30.00 in 10.0 mi NNE 5.8 mph - N/A   Mostly Cloudy
4:14 PM 75.2 °F 68.0 °F 78% 30.00 in 10.0 mi North - - N/A   Mostly Cloudy
4:34 PM 75.2 °F 66.2 °F 73% 30.00 in 10.0 mi NNE 6.9 mph - N/A   Mostly Cloudy
4:54 PM 77.0 °F 66.2 °F 69% 30.00 in 10.0 mi North 12.7 mph 20.7 mph N/A   Scattered Clouds
5:34 PM 78.8 °F 66.2 °F 65% 30.00 in 10.0 mi NNE 10.4 mph - N/A   Clear
5:54 PM 75.2 °F 66.2 °F 73% 30.01 in 10.0 mi North 10.4 mph - N/A   Scattered Clouds
6:14 PM 73.4 °F 66.2 °F 78% 30.01 in 10.0 mi North 16.1 mph - N/A   Mostly Cloudy
6:34 PM 69.8 °F 66.2 °F 88% 30.03 in 3.0 mi North 11.5 mph 23.0 mph 0.17 in Rain Heavy Rain
6:53 PM 71.6 °F 69.8 °F 94% 30.02 in 10.0 mi North 5.8 mph - 0.22 in Rain Light Rain
7:14 PM 71.6 °F 68.0 °F 88% 30.02 in 10.0 mi NE 13.8 mph 20.7 mph N/A   Mostly Cloudy
7:34 PM 69.8 °F 66.2 °F 88% 30.03 in 7.0 mi NNE 13.8 mph 28.8 mph 0.09 in Rain Rain
7:53 PM 69.8 °F 66.2 °F 88% 30.03 in 10.0 mi NNE 12.7 mph - 0.09 in   Mostly Cloudy
8:14 PM 69.8 °F 66.2 °F 88% 30.03 in 10.0 mi NNE 8.1 mph - N/A   Mostly Cloudy
8:34 PM 69.8 °F 66.2 °F 88% 30.03 in 10.0 mi NNE 4.6 mph - N/A   Mostly Cloudy
8:53 PM 68.0 °F 64.4 °F 88% 30.03 in 10.0 mi North 6.9 mph - N/A   Scattered Clouds
9:14 PM 68.0 °F 64.4 °F 88% 30.04 in 10.0 mi North 8.1 mph - N/A   Clear
9:34 PM 66.2 °F 64.4 °F 94% 30.04 in 10.0 mi North 5.8 mph - N/A   Clear
9:53 PM 66.2 °F 62.6 °F 88% 30.05 in 10.0 mi North 9.2 mph - N/A   Clear
10:14 PM 64.4 °F 60.8 °F 88% 30.05 in 10.0 mi North 10.4 mph - N/A   Clear
10:34 PM 64.4 °F 60.8 °F 88% 30.05 in 10.0 mi North 10.4 mph - N/A   Clear
10:53 PM 64.4 °F 57.2 °F 77% 30.06 in 10.0 mi North 11.5 mph - N/A   Scattered Clouds
11:14 PM 66.2 °F 57.2 °F 73% 30.06 in 10.0 mi North 10.4 mph - N/A   Mostly Cloudy
11:33 PM 66.2 °F 57.2 °F 73% 30.06 in 10.0 mi North 9.2 mph - N/A   Overcast
11:54 PM 64.4 °F 57.2 °F 77% 30.06 in 10.0 mi North 8.1 mph - N/A   Scattered Clouds